Glasgow, MT

10:20 AM MST on February 23, 2017 (GMT -0700)
Wokal-Glasgow International

Weather History for KGGW - January, 2013

Change the Weather History Date:

Tuesday, January 1, 2013

  Actual Average Record
Temperature  
Mean Temperature 13 °F 13 °F  
Max Temperature 29 °F 23 °F 48 °F (1964)
Min Temperature -4 °F 4 °F -42 °F (1928)
Degree Days  
Heating Degree Days 52 52  
Month to date heating degree days 52 52  
Since 1 July heating degree days 3582 3554  
Cooling Degree Days 0 0  
Month to date cooling degree days 0 0  
Year to date cooling degree days 0 0  
Moisture  
Dew Point 5 °F    
Average Humidity 81    
Maximum Humidity 92    
Minimum Humidity 69    
Precipitation  
Precipitation 0.06 in 0.01 in 0.25 in (1904)
Month to date precipitation 0.06 0.01  
Year to date precipitation 0.06 0.01  
Snow  
Snow 1.50 in 0.30 in 4.00 in (2005)
Month to date snowfall 1.5 0.3  
Since 1 July snowfall 24.1 14.9  
Snow Depth 4.00 in    
Sea Level Pressure  
Sea Level Pressure 30.10 in    
Wind  
Wind Speed 8 mph (NW)    
Max Wind Speed 22 mph    
Max Gust Speed 28 mph    
Visibility 5 miles    
Events Fog , Snow    
T = Trace of Precipitation, MM = Missing Value Source: NWS Daily Summary

Daily Weather History Graph

Daily Weather History Graph

Search for Another Location

Airport or City:

Trip Planner

Search our weather history database for the weather conditions in past years. The results will help you decide how hot, cold, wet, or windy it might be!

Date:

Astronomy

Jan. 01, 2013 Rise Set
Actual Time 7:57 AM MST 4:23 PM MST
Civil Twilight 7:20 AM MST 4:59 PM MST
Nautical Twilight 6:41 AM MST 5:39 PM MST
Astronomical Twilight 6:03 AM MST 6:17 PM MST
Moon 9:20 PM MST (1/1) 9:49 AM MST (1/1)
Length of Visible Light 9h 39m
Length of Day
8h 26m
Waning Gibbous, 83% of the Moon is Illuminated
Jan 1
Waning Gibbous
Jan 4
Last Quarter
Jan 11
New
Jan 18
First Quarter
Jan 26
Full

Hourly Weather History & Observations

Time (MST) Temp. Windchill Dew Point Humidity Pressure Visibility Wind Dir Wind Speed Gust Speed Precip Events Conditions
12:53 AM 6.1 °F - 3.0 °F 87% 30.19 in 0.2 mi Calm Calm - N/A Fog Light Freezing Fog
1:53 AM 3.9 °F - 1.0 °F 88% 30.19 in 0.2 mi Calm Calm - N/A Fog Light Freezing Fog
2:53 AM -0.0 °F - -4.0 °F 83% 30.20 in 0.2 mi Calm Calm - N/A Fog Light Freezing Fog
3:53 AM -2.0 °F - -5.1 °F 87% 30.20 in 0.2 mi Calm Calm - N/A Fog Light Freezing Fog
4:53 AM -4.0 °F -12.4 °F -7.1 °F 87% 30.19 in 0.5 mi ENE 3.5 mph - N/A Fog Light Freezing Fog
5:00 AM -2.2 °F - -7.6 °F 78% 30.02 in 1.5 mi Calm Calm - N/A   Mostly Cloudy
5:05 AM -4.0 °F - -7.6 °F 85% 30.02 in 3.0 mi Calm Calm - N/A   Mostly Cloudy
5:15 AM -4.0 °F -12.4 °F -9.4 °F 78% 30.02 in 2.0 mi NE 3.5 mph - N/A   Haze
5:30 AM -4.0 °F -14.6 °F -7.6 °F 85% 30.01 in 6.0 mi ENE 4.6 mph - N/A   Overcast
5:44 AM -2.2 °F -15.6 °F -7.6 °F 78% 30.02 in 1.8 mi NE 6.9 mph - N/A   Haze
5:53 AM -2.0 °F -16.6 °F -6.0 °F 83% 30.17 in 2.0 mi NE 8.1 mph - N/A   Mostly Cloudy
5:58 AM -2.2 °F -15.6 °F -5.8 °F 85% 30.01 in 5.0 mi NE 6.9 mph - N/A   Scattered Clouds
6:14 AM -2.2 °F -14.2 °F -7.6 °F 78% 30.01 in 9.0 mi NE 5.8 mph - N/A   Mostly Cloudy
6:21 AM -2.2 °F - -5.8 °F 85% 30.01 in 10.0 mi Calm Calm - N/A   Scattered Clouds
6:36 AM -2.2 °F -10.4 °F -7.6 °F 78% 30.00 in 10.0 mi South 3.5 mph - N/A   Mostly Cloudy
6:53 AM -2.2 °F - -7.6 °F 78% 30.00 in 10.0 mi Calm Calm - N/A   Overcast
7:33 AM -2.2 °F - -5.8 °F 85% 29.99 in 9.0 mi Calm Calm - N/A   Mostly Cloudy
7:53 AM 1.0 °F - -2.0 °F 87% 30.14 in 10.0 mi Calm Calm - N/A   Overcast
8:53 AM 1.9 °F -10.6 °F -2.0 °F 83% 30.18 in 9.0 mi NNW 6.9 mph - N/A   Overcast
9:49 AM 3.2 °F -9.1 °F -0.4 °F 85% 30.03 in 2.0 mi WNW 6.9 mph - 0.00 in Snow Light Snow
9:53 AM 3.2 °F -7.8 °F 1.4 °F 92% 30.03 in 2.0 mi WNW 5.8 mph - N/A Snow Light Snow
10:02 AM 5.0 °F -2.1 °F 1.4 °F 85% 30.02 in 1.5 mi West 3.5 mph - 0.00 in Snow Light Snow
10:14 AM 5.0 °F -2.1 °F 1.4 °F 85% 30.02 in 3.0 mi WNW 3.5 mph - 0.01 in Snow Light Snow
10:23 AM 6.8 °F -0.1 °F 3.2 °F 85% 30.02 in 2.0 mi West 3.5 mph - 0.01 in Snow Light Snow
10:31 AM 6.8 °F -2.0 °F 3.2 °F 85% 30.02 in 1.8 mi WNW 4.6 mph - 0.01 in Snow Light Snow
10:50 AM 8.6 °F 0.1 °F 3.2 °F 79% 30.02 in 0.8 mi West 4.6 mph - 0.01 in Snow Light Snow
10:51 AM 8.1 °F -0.5 °F 3.9 °F 83% 30.17 in 0.8 mi West 4.6 mph - 0.01 in Snow Light Snow
11:53 AM 10.9 °F 4.7 °F 8.1 °F 88% 30.16 in 1.0 mi West 3.5 mph - 0.03 in Snow Light Snow
12:11 PM 12.2 °F 4.3 °F 8.6 °F 85% 30.00 in 1.5 mi WNW 4.6 mph - 0.00 in Snow Light Snow
12:26 PM 12.2 °F 2.9 °F 8.6 °F 85% 30.00 in 1.0 mi NNW 5.8 mph - 0.00 in Snow Light Snow
12:53 PM 14.0 °F 6.5 °F 10.9 °F 88% 30.15 in 0.8 mi NW 4.6 mph - 0.01 in Snow Light Snow
1:12 PM 15.8 °F 7.2 °F 12.2 °F 86% 29.99 in 1.5 mi WNW 5.8 mph - 0.01 in Snow Light Snow
1:16 PM 15.8 °F 5.1 °F 12.2 °F 86% 30.00 in 3.0 mi WNW 8.1 mph - 0.01 in Snow Light Snow
1:32 PM 15.8 °F 8.6 °F 12.2 °F 86% 29.99 in 10.0 mi NW 4.6 mph - 0.01 in   Overcast
1:53 PM 16.0 °F 8.8 °F 12.9 °F 88% 30.15 in 10.0 mi NW 4.6 mph - 0.01 in   Mostly Cloudy
2:53 PM 21.9 °F 15.7 °F 19.0 °F 89% 30.16 in 10.0 mi NW 4.6 mph - N/A   Mostly Cloudy
3:53 PM 19.9 °F 8.6 °F 17.1 °F 89% 30.18 in 10.0 mi WNW 10.4 mph - N/A   Partly Cloudy
4:53 PM 28.9 °F 17.3 °F 24.1 °F 82% 30.18 in 10.0 mi WNW 16.1 mph - N/A   Mostly Cloudy
5:53 PM 27.0 °F 15.6 °F 23.0 °F 85% 30.19 in 10.0 mi West 13.8 mph - N/A   Overcast
6:53 PM 27.0 °F 15.2 °F 23.0 °F 85% 30.20 in 10.0 mi West 15.0 mph - N/A   Mostly Cloudy
7:53 PM 27.0 °F 15.6 °F 21.9 °F 81% 30.20 in 10.0 mi WNW 13.8 mph - N/A   Overcast
8:53 PM 28.0 °F 16.1 °F 19.9 °F 72% 30.21 in 10.0 mi NW 16.1 mph - N/A   Overcast
9:53 PM 27.0 °F 14.7 °F 19.9 °F 75% 30.21 in 10.0 mi WNW 16.1 mph - 0.00 in   Overcast
10:27 PM 26.6 °F 13.1 °F 19.4 °F 74% 30.08 in 10.0 mi WNW 19.6 mph 26.5 mph N/A   Overcast
10:53 PM 27.0 °F 13.5 °F 19.0 °F 72% 30.22 in 10.0 mi WNW 19.6 mph - N/A   Overcast
11:53 PM 21.9 °F 9.8 °F 16.0 °F 78% 30.22 in 10.0 mi West 12.7 mph - N/A   Overcast